Skip Page Navigation
NASA JPL Caltech
NASA Logo - Jet Propulsion Laboratory + View the NASA Portal
+ Near-Earth Object (NEO) Program
Search JPL
JPL Home Earth Solar System Stars & Galaxies Technology
JPL Solar System Dynamics
BODIES ORBITS EPHEMERIDES TOOLS PHYSICAL DATA DISCOVERY FAQ SITE MAP
JPL Small-Body Database Browser
Search: [ help ]  
37682 (1995 GZ6)
Classification: Main-belt Asteroid          SPK-ID: 2037682
Ephemeris | Orbit Diagram | Orbital Elements | Physical Parameters | Discovery Circumstances ]

[ show orbit diagram ]
Orbital Elements at Epoch 2457000.5 (2014-Dec-09.0) TDB
Reference: JPL 9 (heliocentric ecliptic J2000)
 Element Value Uncertainty (1-sigma)   Units 
e .1710631172586013 6.55e-08  
a 2.305122603734759 1.8326e-08 AU
q 1.910801145476628 1.462e-07 AU
i 6.253758907791388 6.562e-06 deg
node 126.6025796968628 5.7023e-05 deg
peri 147.5866957716936 6.1073e-05 deg
M 146.4999688772744 2.7735e-05 deg
tp 2456480.295023403316
(2013-Jul-06.79502340)
9.5737e-05 JED
period 1278.319667983609
3.50
1.5245e-05
4.174e-08
d
yr
n .2816196989035266 3.3584e-09 deg/d
Q 2.69944406199289 2.1461e-08 AU
  Orbit Determination Parameters
   # obs. used (total)      677  
   data-arc span      7319 days (20.04 yr)  
   first obs. used      1995-03-27  
   last obs. used      2015-04-10  
   planetary ephem.      DE431  
   SB-pert. ephem.      SB431-BIG16  
   condition code      0  
   fit RMS      .48164  
   data source      ORB  
   producer      Otto Matic  
   solution date      2015-Jun-04 17:19:21  

Additional Information
 Earth MOID = .899258 AU 
 T_jup = 3.561 
[ show covariance matrix ]

Ephemeris | Orbit Diagram | Orbital Elements | Physical Parameters | Discovery Circumstances ]

Physical Parameter Table
Parameter Symbol Value Units Sigma Reference Notes
absolute magnitude H 15.1 mag n/a MPO324649  

37682 (1995 GZ6)          Discovered 1995-Apr-04 by BAO Schmidt CCD Asteroid Program at Xinglong
Reference: 20020328/Numbers.arcLast Updated: 2004-04-19

Alternate Designations
 1995 GZ6 = 1999 LW27 = 2000 RF61 
Ephemeris | Orbit Diagram | Orbital Elements | Physical Parameters | Discovery Circumstances ]
ABOUT SSD CREDITS/AWARDS PRIVACY/COPYRIGHT GLOSSARY LINKS
FirstGov 2015-Aug-31 17:47 UT
(server date/time)  
NASA Home Page
Site Manager:   Ryan S. Park
Webmaster  Alan B. Chamberlin